This demonstration page uses our WeatherBlox Daily Observations layout. Learn more.

Left ArrowRight Arrow

39.12711, -84.51439

Hourly Observations for July 11, 2018

Temp ( °F °C ) Dew Point ( °F °C ) Humidity (%) Winds ( mph kmh ) Pressure ( in mb ) Visibility ( mi km ) Precip ( " mm )
12:53 am 00:53 Partly Cloudy 74 23.3 72 22.2 94 94 Calm 30.00 1016 10 16 0.00 0.00
1:53 am 01:53 Clear 74 23.3 71 21.7 91 91 N 3 6 30.00 1016 10 16 0.00 0.00
2:53 am 02:53 Mostly Cloudy 73 22.8 71 21.7 94 94 Calm 30.00 1016 10 16 0.00 0.00
3:53 am 03:53 Mostly Cloudy 74 23.3 72 22.2 94 94 ENE 5 7 30.01 1016 10 16 0.00 0.00
4:09 am 04:09 Cloudy 74 23.3 72 22.2 94 94 NE 7 11 30.00 1016 10 16 0.00 0.00
4:53 am 04:53 Cloudy 74 23.3 70 21.1 88 88 NE 6 9 30.03 1017 10 16 0.00 0.00
5:53 am 05:53 Partly Cloudy 73 22.8 66 18.9 79 79 NE 7 11 30.05 1018 10 16 0.00 0.00
6:53 am 06:53 Mostly Cloudy 71 21.7 62 16.7 73 73 NE 6 9 30.07 1018 10 16 0.00 0.00
7:53 am 07:53 Mostly Cloudy 72 22.2 62 16.7 71 71 NE 5 7 30.09 1019 10 16 0.00 0.00
8:53 am 08:53 Mostly Cloudy 73 22.8 62 16.7 69 69 NE 5 7 30.09 1019 10 16 0.00 0.00
9:53 am 09:53 Mostly Sunny 77 25 61 16.1 58 58 NE 7 11 30.11 1020 10 16 0.00 0.00
10:53 am 10:53 Sunny 80 26.7 60 15.6 51 51 NE 9 15 30.10 1019 10 16 0.00 0.00
11:53 am 11:53 Sunny 82 27.8 60 15.6 47 47 NE 8 13 30.10 1019 10 16 0.00 0.00
12:53 pm 12:53 Mostly Sunny 84 28.9 59 15 43 43 NE 9 15 30.09 1019 10 16 0.00 0.00
1:53 pm 13:53 Partly Cloudy 85 29.4 60 15.6 43 43 ENE 12 19 30.09 1019 10 16 0.00 0.00
2:53 pm 14:53 Sunny 87 30.6 56 13.3 35 35 N 9 15 30.08 1019 10 16 0.00 0.00
3:53 pm 15:53 Sunny 87 30.6 58 14.4 37 37 NE 9 15 30.07 1018 10 16 0.00 0.00
4:53 pm 16:53 Sunny 86 30 60 15.6 42 42 NNE 9 15 30.06 1018 10 16 0.00 0.00
5:53 pm 17:53 Sunny 85 29.4 62 16.7 46 46 NE 12 19 30.06 1018 10 16 0.00 0.00
6:53 pm 18:53 Sunny 83 28.3 60 15.6 46 46 NE 13 20 30.06 1018 10 16 0.00 0.00
7:53 pm 19:53 Sunny 79 26.1 61 16.1 54 54 NE 9 15 30.07 1018 10 16 0.00 0.00
8:53 pm 20:53 Sunny 76 24.4 61 16.1 60 60 ENE 5 7 30.07 1018 10 16 0.00 0.00
9:53 pm 21:53 Clear 71 21.7 62 16.7 73 73 Calm 30.09 1019 10 16 0.00 0.00
10:53 pm 22:53 Clear 69 20.6 64 17.8 84 84 Calm 30.11 1020 10 16 0.00 0.00
11:53 pm 23:53 Clear 68 20 64 17.8 87 87 Calm 30.12 1020 10 16 0.00 0.00

Powered by AerisWeather